Location: Elaine Barite Prospect
(34.1431°N, 106.7922°W)
Time: 06:42:20
(UTC+00:00)

OAO 2 Rocket - Pass Details

Date: 13 December 2025
Orbit: 669 x 734 km, 35.0° (Epoch: 12 January)

Event Time Altitude Azimuth Distance (km) Brightness Sun altitude
Exits shadow 13:28:57 - 275° (W) 2,409 5.5 -7.5°
Reaches altitude 10° 13:29:29 10° 275° (W) 2,209 5.3 -7.4°
Maximum altitude 13:34:42 82° 4° (N) 725 3.4 -6.4°
Drops below altitude 10° 13:39:49 10° 92° (E) 2,169 7.2 -5.4°
Sets 13:42:12 0° 93° (E) 3,076 8.2 -5.0°
